Weather observations for the past three days for
Lakehurst Naval Air Station
Imperial (Metric)
Date Time (edt) Wind (mph) Vis. (mi.) Weather Sky Cond. Temperature (ºF) Relative Humidity Wind Chill (°F) Heat Index (°F) Pressure Precipitation (in)
Air Dwpt 6 hour altimeter (in) sea level (mb) 1 hr 3 hr 6 hr
Max. Min.
21 04:00 W 7 0.00 Fair CLR 71.1 66 84% 30.21 1022.8
21 03:00 W 7 0.00 Fair CLR 70 64.9 84% 30.22 1023.0
21 02:00 W 5 0.00 A Few Clouds FEW065 71.1 64.9 86 71.1 81% 30.22 1023.2
21 01:00 W 6 0.00 Fair CLR 72 64.9 79% 30.22 1023.2
21 00:00 W 5 0.00 Fair CLR 73 64.9 76% 30.23 1023.6
20 23:00 SW 6 0.00 Fair CLR 75.9 66 72% 77 30.23 1023.6
20 22:00 SW 7 0.00 NULL NULL 78.1 66 67% 80 30.24 1023.7
20 21:00 SW 10 0.00 Fair CLR 81 66.9 62% 83 30.21 1022.8
20 20:00 SW 7 0.00 Fair CLR 86 64 93.9 86 48% 87 30.2 1022.5
20 18:00 W 10 0.00 A Few Clouds FEW060 91.9 64.9 41% 94 30.2 1022.4
20 17:00 Vrbl 5 0.00 Mostly Cloudy BKN060 91.9 64.9 41% 94 30.21 1022.9
20 16:00 W 10 0.00 Mostly Cloudy BKN060 91.9 64.9 41% 94 30.24 1023.7
20 15:00 S 7 0.00 Partly Cloudy SCT060 91 64.9 42% 93 30.26 1024.3
20 14:00 SW 8 0.00 Partly Cloudy SCT050 90 64.9 91.9 75 44% 92 30.27 1024.8
20 13:00 SW 7 0.00 A Few Clouds FEW047 90 64.9 44% 92 30.29 1025.5
20 12:00 SW 6 0.00 Fair CLR 88 64.9 46% 90 30.31 1026.1
20 11:00 W 7 0.00 Fair CLR 86 66.9 53% 89 30.32 1026.5
20 10:00 W 8 0.00 Fair CLR 82.9 66.9 59% 86 30.33 1026.9
20 09:00 W 9 0.00 Fair CLR 79 66.9 67% 81 30.34 1027.0
20 08:00 SW 7 0.00 Fair CLR 75 66 75 63 74% 76 30.33 1026.9
20 07:00 SW 6 0.00 Fair CLR 70 66 87% 30.33 1026.7
20 06:00 Calm 0.00 Fair CLR 64.9 63 93% 30.32 1026.4
20 05:00 Calm 0.00 Fair CLR 64.9 63 93% 30.32 1026.4
20 04:00 Calm 0.00 Fair CLR 64.9 63 93% 30.32 1026.4
20 03:00 Calm 0.00 Fair CLR 64.9 63 93% 30.31 1026.1
20 02:00 Calm 0.00 Fair CLR 66.9 63 80.1 66.9 87% 30.31 1026.3
20 01:00 Calm 0.00 Fair CLR 69.1 63 81% 30.32 1026.6
20 00:00 Calm 0.00 Fair CLR 70 63 79% 30.33 1026.9
19 23:00 SW 5 0.00 Fair CLR 72 63 73% 30.34 1027.3
19 22:00 S 7 0.00 Fair CLR 73.9 63 69% 30.33 1027.0
19 21:00 S 8 0.00 Fair CLR 77 64 64% 79 30.31 1026.3
19 20:00 S 9 0.00 Fair CLR 80.1 63 93 80.1 56% 81 30.31 1026.2
19 19:00 S 13 0.00 Fair CLR 84.9 61 45% 85 30.3 1025.8
19 18:00 S 14 0.00 Fair CLR 88 62.1 42% 88 30.29 1025.4
19 17:00 S 15 0.00 Fair CLR 90 61 38% 90 30.29 1025.6
19 16:00 SE 14 G 23 0.00 Fair CLR 91 64.9 42% 93 30.3 1025.8
19 15:00 E 17 G 30 0.00 Mostly Cloudy BKN060 91 66 44% 94 30.28 1025.3
19 14:00 Vrbl 3 0.00 Partly Cloudy SCT055 91 64.9 91 75 42% 93 30.31 1026.0
19 13:00 Calm 0.00 Fair CLR 89.1 64.9 45% 91 30.32 1026.5
19 12:00 Calm 0.00 Fair CLR 86 66 51% 88 30.33 1027.0
19 11:00 W 5 0.00 Fair CLR 82.9 66 57% 85 30.34 1027.3
19 10:00 W 7 0.00 Fair CLR 81 66 61% 83 30.36 1027.8
19 09:00 Vrbl 7 0.00 Fair CLR 78.1 66 67% 80 30.36 1027.9
19 08:00 SW 10 0.00 Fair CLR 75 66.9 75 66 76% 76 30.35 1027.7
19 07:00 S 3 0.00 Fair CLR 70 66 87% 30.35 1027.5
19 06:00 S 3 0.00 Partly Cloudy SCT050 68 64 87% 30.33 1027.0
19 05:00 Calm 0.00 Partly Cloudy SCT050 66.9 64 91% 30.32 1026.5
19 04:00 Calm 0.00 Fair CLR 68 64 87% 30.3 1025.9
19 03:00 SW 5 0.00 Partly Cloudy SCT055 68 63 84% 30.29 1025.6
19 02:00 Calm 0.00 Fair CLR 70 63 80.1 69.1 79% 30.29 1025.5
19 01:00 S 3 0.00 Fair CLR 70 64 82% 30.29 1025.6
19 00:00 S 5 0.00 Fair CLR 70 63 79% 30.3 1025.8
18 23:00 S 6 0.00 Fair CLR 72 61 68% 30.29 1025.4
18 18:00 S 15 0.00 Fair CLR 86 64 48% 87 30.2 1022.6
Date Time (edt) Wind (mph) Vis. (mi.) Weather Sky Cond. Air Dwpt Max. Min. Relative Humidity Wind Chill (°F) Heat Index (°F) altimeter (in) sea level (mb) 1 hr 3 hr 6 hr
6 hour
Temperature (ºF) Pressure Precipitation (in)